Effective Sunday, March 17, 2024, the National Weather Service National Data Buoy Center will discontinue its Dial-A-Buoy Interactive Voice Response system. For more information, see Service Change Notice 24-06 (PDF).

Station 42001 (LLNR 1465) - MID GULF - 180 nm South of Southwest Pass, LA Image indicating link to RSS feed of recent meteorological observations for station 42001


Conditions at 42001 as of
(11:30 am CST)
1730 GMT on 03/02/2024:
     

Click on the graph icon in the table below to see a time series plot of the last five days of that observation.

5-day plot - Wind Direction Wind Direction (WDIR): SE ( 140 deg true )
5-day plot - Wind Speed Wind Speed (WSPD): 7.8 kts
5-day plot - Wind Gust Wind Gust (GST): 9.7 kts
5-day plot - Atmospheric Pressure Atmospheric Pressure (PRES):30.04 in
5-day plot - Air Temperature Air Temperature (ATMP): 76.3 °F
5-day plot - Water Temperature Water Temperature (WTMP): 75.6 °F
5-day plot - Dew Point Dew Point (DEWP): 75.2 °F
5-day plot - Wind Speed at 10 Meters Wind Speed at 10 meters (WSPD10M): 7.8 kts
5-day plot - Wind Speed at 20 Meters Wind Speed at 20 meters (WSPD20M): 9.7 kts
5-day plot -  Wind Speed, Wind Gust and Atmospheric Pressure Combined plot of Wind Speed, Gust, and Air Pressure
Supplemental Measurements
Highest 1-minute Wind Speed
Time (CST)5-day plot - 1-Minute Wind Speed WSPD 5-day plot - 1-Minute Wind Direction WDIR
11:26 am 7.8 kts-
Previous observations
TIME
(CST)
5-day plot - Wind Direction
WDIR
 
5-day plot - Wind Speed
WSPD
kts
5-day plot - Wind Gust
GST
kts
5-day plot - Wave Height
WVHT
ft
5-day plot - Dominant Wave Period
DPD
sec
5-day plot - Average Wave Period
APD
sec
5-day plot - Mean Wave Direction
MWD
 
5-day plot - Atmospheric Pressure
PRES
in
5-day plot - Pressure Tendency
PTDY
in
5-day plot - Air Temperature
ATMP
°F
5-day plot - Water Temperature
WTMP
°F
5-day plot - Dew Point
DEWP
°F
5-day plot - Salinity
SAL
psu
5-day plot - Visibility
VIS
nmi
5-day plot - Tide (above MLLW)
TIDE
ft
2024-03-02 11:20 am SE 7.8 9.7 2.6 84.3ENE30.04- 76.3 75.6 75.2---
2024-03-02 11:10 amSSE 7.8 9.7 2.6-4.3ENE30.04- 76.1 75.6 75.0---
2024-03-02 11:00 amSSE 7.8 9.7----30.04+0.03 76.3 75.6 75.2---
2024-03-02 10:50 amSSE 7.8 9.7 2.6 84.2ENE30.04- 76.1 75.6 75.0---
2024-03-02 10:40 amSSE 7.8 11.7 2.6-4.2ENE30.04- 76.1 75.6 75.0---
2024-03-02 10:30 amSSE 9.7 11.7----30.04- 75.9 75.6 75.2---
2024-03-02 10:20 amSSE 11.7 13.6 2.6 74.2 E30.04- 75.9- 75.2---
2024-03-02 10:10 amSSE 11.7 13.6 2.6-4.2 E30.03- 75.9 75.6 75.2---
2024-03-02 10:00 amSSE 11.7 13.6----30.03+0.02 75.9 75.6 75.2---
2024-03-02 09:50 amSSE 11.7 13.6 2.6 64.2 E30.04- 75.7 75.6 75.0---
2024-03-02 09:40 amSSE 11.7 13.6----30.04- 75.9 75.6 75.0---
2024-03-02 09:30 amSSE 11.7 13.6----30.03- 75.9 75.6 74.8---
2024-03-02 09:20 amSSE 11.7 13.6 2.6 74.2ENE30.03- 76.1 75.4 75.0---
2024-03-02 09:10 amSSE 11.7 13.6 2.6-4.2ENE30.03- 75.9 75.4 74.8---
2024-03-02 09:00 amSSE 11.7 15.5----30.03+0.02 75.9 75.4 74.7---
2024-03-02 08:50 am S 13.6 15.5 2.6 74.2ENE30.02- 75.9 75.4 74.5---
2024-03-02 08:40 amSSE 13.6 15.5----30.02- 75.9 75.4 74.3---
2024-03-02 08:30 am S 13.6 17.5----30.02- 75.9 75.4 74.1---
2024-03-02 08:20 am S 13.6 17.5 2.6 64.1 E30.02- 75.7 75.4 74.1---
2024-03-02 08:10 am S 13.6 15.5 2.6-4.1 E30.02- 75.7 75.4 74.1---
2024-03-02 08:00 amSSE 13.6 17.5----30.02+0.02 75.6 75.4 73.9---
2024-03-02 07:50 am S 13.6 17.5 2.6 74.1 E30.01- 75.6 75.4 74.1---
2024-03-02 07:40 am S 13.6 15.5 2.6-4.1 E30.02- 75.6 75.4 74.1---
2024-03-02 07:30 am S 13.6 15.5----30.02- 75.4 75.4 73.8---
2024-03-02 07:20 am S 11.7 15.5 2.6 44.0 S30.02- 75.4 75.4 74.3---
2024-03-02 07:10 am S 13.6 15.5 2.6-4.0 S30.01- 75.2 75.2 73.9---
2024-03-02 07:00 am S 13.6 15.5----30.01+0.04 75.2 75.2 73.8---
2024-03-02 06:50 am S 13.6 15.5 3.0 74.1 E30.01- 75.2 75.2 73.8---
2024-03-02 06:40 am S 13.6 15.5----30.01- 75.2 75.2 74.1---
2024-03-02 06:30 am S 13.6 15.5----30.01- 75.4 75.2 74.3---
2024-03-02 06:20 am S 13.6 15.5 3.0 64.2 E30.01- 75.2 75.2 73.8---
2024-03-02 06:10 am S 13.6 15.5 3.0-4.2 E30.01- 75.2 75.2 73.9---
2024-03-02 06:00 am S 13.6 17.5----30.01+0.02 75.2 75.2 73.9---
2024-03-02 05:50 am S 13.6 17.5 3.0 74.2ENE30.00- 75.2 75.2 73.8---
2024-03-02 05:40 am S 13.6 17.5----30.00- 75.2 75.2 73.8---
2024-03-02 05:30 am S 13.6 15.5----30.00- 75.2 75.2 73.8---
2024-03-02 05:20 am S 13.6 15.5 2.6 74.1ENE30.00- 75.4 75.2 74.3---
2024-03-02 05:10 am S 13.6 15.5 2.6-4.1ENE30.00- 75.4 75.2 73.9---
2024-03-02 05:00 am S 13.6 17.5----30.00+0.00 75.4 75.2 74.1---
2024-03-02 04:50 am S 15.5 19.4 3.0 64.1ESE29.99- 75.4 75.2 73.9---
2024-03-02 04:40 am S 15.5 17.5----29.98- 75.4 75.2 73.9---
2024-03-02 04:30 am S 13.6 17.5----29.98- 75.6 75.2 73.8---
2024-03-02 04:20 am S 13.6 17.5 2.6 74.1ENE29.98- 75.6 75.2 73.8---
2024-03-02 04:10 am S 13.6 15.5 2.6-4.1ENE29.98- 75.6 75.2 73.8---
2024-03-02 04:00 am S 11.7 13.6----29.98-0.04 75.6 75.2 73.8---
2024-03-02 03:50 am S 11.7 13.6 2.6 74.2ENE29.98- 75.6 75.2 73.8---
2024-03-02 03:40 am S 11.7 13.6 2.6-4.2ENE29.98- 75.6 75.2 74.1---
2024-03-02 03:30 am S 11.7 15.5----29.98- 75.4 75.2 74.1---
2024-03-02 03:20 am S 11.7 13.6 2.6 64.2 E29.98- 75.6 75.2 74.5---
2024-03-02 03:10 am S 11.7 13.6 2.6-4.2 E29.98- 75.4 75.2 74.3---
2024-03-02 03:00 am S 11.7 13.6----29.98-0.04 75.6 75.2 74.7---
2024-03-02 02:50 am S 9.7 13.6 2.6 64.5 E29.99- 75.6 75.2 74.8---
2024-03-02 02:40 am S 9.7 13.6 2.6-4.5 E30.00- 75.6 75.2 74.7---
2024-03-02 02:30 am S 9.7 13.6----30.00- 75.6 75.2 74.8---
2024-03-02 02:20 amSSE 9.7 11.7 2.6 64.5 E30.00- 75.4 75.2 74.7---
2024-03-02 02:10 amSSE 9.7 11.7 2.6-4.5 E30.00- 75.4 75.2 74.7---
2024-03-02 02:00 amSSE 9.7 11.7----30.00-0.04 75.2 75.2 74.5---
2024-03-02 01:50 amSSE 9.7 11.7 2.6 64.4 E30.00- 75.4- 74.8---
2024-03-02 01:40 amSSE 11.7 13.6----30.01- 75.4 75.2 74.7---
2024-03-02 01:30 amSSE 11.7 13.6----30.01- 75.4 75.2 74.7---
2024-03-02 01:20 amSSE 11.7 13.6 2.6 74.4ENE30.01- 75.4 75.2 74.7---
2024-03-02 01:10 amSSE 11.7 13.6----30.01- 75.4 75.2 74.7---
2024-03-02 01:00 amSSE 11.7 15.5----30.01-0.04 75.2 75.2 74.5---
2024-03-02 12:50 amSSE 13.6 15.5 2.6 54.5 SE30.01- 75.4 75.2 74.7---
2024-03-02 12:40 amSSE 13.6 15.5----30.01-- 75.2----
2024-03-02 12:30 amSSE 13.6 15.5----30.01- 75.4 75.2 74.7---
2024-03-02 12:20 amSSE 13.6 15.5 2.6 84.7 NE30.01- 75.2 75.2 74.5---
2024-03-02 12:10 amSSE 11.7 15.5----30.01- 75.2 75.2 74.5---
2024-03-02 12:00 amSSE 11.7 13.6----30.02-0.03 75.2 75.2 74.7---
2024-03-01 11:50 pmSSE 11.7 15.5 3.0 85.1 NE30.02- 75.2 75.2 74.8---
2024-03-01 11:40 pmSSE 11.7 15.5----30.02- 75.2 75.2 74.8---
2024-03-01 11:30 pmSSE 11.7 11.7----30.02- 75.4 75.2 75.0---
2024-03-01 11:20 pmSSE 9.7 13.6 2.6 75.1 E30.03- 75.4 75.2 74.7---
2024-03-01 11:10 pm SE 9.7 11.7----30.03- 75.6 75.2 74.8---
2024-03-01 11:00 pmSSE 9.7 11.7----30.04+0.00 75.4 75.2 74.7---
2024-03-01 10:50 pmSSE 9.7 11.7 2.6 65.1 E30.04- 75.6 75.2 74.8---
2024-03-01 10:40 pmSSE 7.8 9.7----30.04- 75.6 75.2 74.7---
2024-03-01 10:30 pm SE 7.8 9.7----30.04- 75.6 75.2 74.7---
2024-03-01 10:20 pmSSE 7.8 9.7 2.6 74.9 E30.05- 75.6 75.2 74.5---
2024-03-01 10:10 pmSSE 5.8 7.8 2.6-4.9 E30.05- 75.7 75.2 74.7---
2024-03-01 10:00 pmSSE 5.8 7.8----30.05+0.03 75.7 75.2 74.7---
2024-03-01 09:50 pmSSE 7.8 7.8 2.6 64.8ENE30.05- 75.7 75.2 74.7---
2024-03-01 09:40 pmSSE 7.8 7.8----30.05- 75.7 75.2 74.7---
2024-03-01 09:30 pmSSE 7.8 9.7----30.05- 75.7 75.2 74.7---
2024-03-01 09:20 pmSSE 7.8 7.8 2.6 74.9ENE30.05- 75.7 75.2 74.7---
2024-03-01 09:10 pm S 5.8 7.8 2.6-4.9ENE30.05- 75.7 75.2 74.7---
2024-03-01 09:00 pm S 5.8 7.8----30.05+0.04 75.7 75.2 74.7---
2024-03-01 08:50 pm S 7.8 9.7 3.0 74.9 E30.05- 75.7 75.2 74.7---
2024-03-01 08:40 pm S 7.8 7.8----30.05- 75.7 75.2 74.7---
2024-03-01 08:30 pm S 5.8 7.8----30.05- 75.7 75.2 74.7---
2024-03-01 08:20 pm S 5.8 7.8 3.0 64.8ENE30.05- 75.7 75.2 74.7---
2024-03-01 08:10 pm S 7.8 7.8 3.0-4.8ENE30.05- 75.7 75.2 74.7---
2024-03-01 08:00 pm S 7.8 7.8----30.04+0.03 75.7 75.2 74.7---
2024-03-01 07:50 pm S 7.8 9.7 3.0 64.7 E30.04- 75.6 75.2 74.5---
2024-03-01 07:40 pm S 7.8 9.7----30.03- 75.7 75.2 74.7---
2024-03-01 07:30 pm S 7.8 9.7----30.03- 75.6 75.2 74.5---
2024-03-01 07:20 pm S 7.8 9.7 3.3 74.8 E30.03- 75.7 75.2 74.7---
2024-03-01 07:10 pm S 7.8 9.7 3.3-4.8 E30.02- 75.6 75.2 74.5---
2024-03-01 07:00 pm S 7.8 9.7----30.03+0.02 75.7 75.2 74.5---
2024-03-01 06:50 pm S 7.8 9.7 3.3 64.8 E30.03- 75.7 75.2 74.5---
2024-03-01 06:40 pm S 9.7 11.7----30.03- 75.7 75.2 74.5---
2024-03-01 06:30 pm S 9.7 11.7----30.02- 75.6 75.2 74.5---
2024-03-01 06:20 pm S 9.7 11.7 3.3 74.8 E30.01- 75.7 75.2 74.5---
2024-03-01 06:10 pm S 9.7 11.7----30.01- 75.7 75.2 74.3---
2024-03-01 06:00 pm S 7.8 9.7----30.01+0.00 75.7 75.2 74.3---
2024-03-01 05:50 pm S 7.8 9.7 3.6 75.0ENE30.01- 75.7 75.2 74.3---
2024-03-01 05:40 pm S 9.7 11.7----30.01- 75.7 75.2 74.3---
2024-03-01 05:10 pm S 9.7 11.7 3.3-4.7ENE30.00- 75.7 75.2 74.1---
2024-03-01 05:00 pm S 9.7 11.7----30.01-0.01 75.7 75.2 74.1---
2024-03-01 04:50 pm S 9.7 11.7 3.6 74.9ENE30.00- 75.9 75.2 74.1---
2024-03-01 04:40 pm S 9.7 11.7 3.6-4.9ENE30.00- 75.7 75.2 73.9---
2024-03-01 04:30 pm S 9.7 13.6----30.00- 75.7 75.2 73.9---
2024-03-01 04:20 pm S 9.7 11.7 3.6 84.8ENE30.00- 75.7 75.2 74.1---
2024-03-01 04:10 pm S 9.7 11.7 3.6-4.8ENE30.00- 75.7 75.4 74.1---
2024-03-01 04:00 pm S 9.7 11.7----30.00-0.04 75.7 75.2 74.1---
2024-03-01 03:50 pm S 9.7 11.7 3.6 74.7 NE30.00- 75.7 75.2 74.3---
2024-03-01 03:40 pm S 9.7 11.7 3.6-4.7 NE30.00- 75.7 75.2 74.3---
2024-03-01 03:30 pm S 7.8 11.7----30.00- 75.7 75.2 74.1---
2024-03-01 03:20 pm S 9.7 11.7----30.00- 75.7 75.2 73.9---
2024-03-01 03:10 pm S 9.7 11.7----30.01- 75.7 75.2 74.1---
2024-03-01 03:00 pm S 9.7 11.7----30.01-0.04 75.7 75.2 73.9---
2024-03-01 02:50 pm S 9.7 11.7 3.6 74.8 NE30.01- 75.7 75.2 73.9---
2024-03-01 02:40 pm S 9.7 13.6 3.6-4.8 NE30.02- 75.7 75.2 73.9---
2024-03-01 02:30 pm S 11.7 13.6----30.02- 75.7 75.2 73.9---
2024-03-01 02:20 pm S 11.7 13.6 3.6 74.7 NE30.02- 75.7 75.2 73.9---
2024-03-01 02:10 pm S 11.7 13.6 3.6-4.7 NE30.02- 75.7 75.2 73.9---
2024-03-01 02:00 pm S 11.7 13.6----30.02-0.05 75.7- 73.9---
2024-03-01 01:50 pm S 11.7 13.6 3.6 84.8 NE30.02- 75.7 75.2 73.9---
2024-03-01 01:40 pm S 11.7 13.6----30.02- 75.7 75.2 73.9---
2024-03-01 01:30 pm S 11.7 15.5----30.02- 75.7 75.2 73.9---
2024-03-01 01:20 pm S 9.7 13.6 3.6 84.8 NE30.02- 75.7 75.2 74.1---
2024-03-01 01:10 pm S 9.7 13.6 3.6-4.8 NE30.03- 75.6 75.2 73.9---
2024-03-01 01:00 pm S 9.7 13.6----30.04-0.03 75.6 75.2 73.9---
2024-03-01 12:50 pm S 11.7 13.6 3.9 84.8 NE30.04- 75.6 75.0 73.8---
2024-03-01 12:40 pm S 11.7 13.6----30.04- 75.6 75.2 73.9---
2024-03-01 12:30 pmSSE 11.7 13.6----30.04- 75.4 75.2 73.9---
2024-03-01 12:20 pmSSE 11.7 13.6 4.3 85.1 NE30.04- 75.4 75.0 74.1---
2024-03-01 12:10 pmSSE 11.7 13.6----30.05- 75.4 75.0 73.9---
2024-03-01 12:00 pmSSE 11.7 15.5----30.05-0.01 75.2 75.0 73.8---
2024-03-01 11:50 amSSE 11.7 13.6 3.9 84.9 NE30.05- 75.2 75.0 73.9---
2024-03-01 11:40 amSSE 11.7 13.6----30.05- 75.4 75.0 74.3---
2024-03-01 11:30 amSSE 11.7 13.6----30.06- 75.4 75.0 74.3---
2024-03-01 11:20 amSSE 11.7 13.6 4.6 85.2 NE30.07- 75.4 75.0 74.1---
2024-03-01 11:10 amSSE 11.7 13.6 4.6-5.2 NE30.06- 75.4 75.0 74.1---
2024-03-01 11:00 amSSE 11.7 13.6----30.06+0.01 75.4 75.0 74.1---
2024-03-01 10:50 amSSE 11.7 13.6 3.9 84.8ENE30.07- 75.4 75.0 74.1---

Detailed Wave Summary
for 42001 as of (11:10 am CST)
1710 GMT on 03/02/2024:

These wave data are displayed in rounded times.

     

Click on the graph icon in the table below to see a time series plot of the last five days of that observation.

5-day plot - Significant Wave Height Significant Wave Height (WVHT): 2.6 ft
5-day plot - Swell Height Swell Height (SwH): 2.0 ft
5-day plot - Swell Period Swell Period (SwP): 7.7 sec
5-day plot - Swell Direction Swell Direction (SwD):ENE
5-day plot - Wind Wave Height Wind Wave Height (WWH): 1.3 ft
5-day plot - Wind Wave Period Wind Wave Period (WWP): 3.6 sec
5-day plot - Wind Wave Direction Wind Wave Direction (WWD):SSE
5-day plot - Average Wave Period Average Wave Period (APD): 4.3 sec
Previous observations
TIME
(CST)
5-day plot - Wave Height
WVHT
ft
5-day plot - Swell Height
SwH
ft
5-day plot - Swell Period
SwP
sec
5-day plot - Swell Direction
SwD
 
5-day plot - Wind Wave Height
WWH
ft
5-day plot - Wind Wave Period
WWP
sec
5-day plot - Wind Wave Direction
WWD
 
5-day plot - Wave Steepness
STEEPNESS
 
5-day plot - Average Wave Period
APD
sec
2024-03-02 10:40 am 2.6 2.0 7.7ENE 1.3 4.0 SE N/A 4.2
2024-03-02 10:10 am 2.6 1.6 6.7 E 2.0 3.7 S N/A 4.2
2024-03-02 09:40 am 2.6 1.6 6.2 E 2.0 3.6 S AVERAGE 4.2
2024-03-02 09:10 am 2.6 1.6 7.1ENE 2.3 3.6 S AVERAGE 4.2
2024-03-02 08:40 am 2.6 1.3 7.1ENE 2.3 3.7 SSE AVERAGE 4.2
2024-03-02 08:10 am 2.6 1.3 7.7 NE 2.3 5.9 E STEEP 4.1
2024-03-02 07:40 am 2.6 1.3 6.7 E 2.3 3.7 S AVERAGE 4.1
2024-03-02 07:10 am 2.6 1.3 7.7ENE 2.6 3.7 SVERY_STEEP 4.0
2024-03-02 06:40 am 3.0 1.3 6.7 E 2.6 5.6 ESE AVERAGE 4.1
2024-03-02 06:10 am 3.0 1.3 7.7ENE 2.6 6.2 E STEEP 4.2
2024-03-02 05:40 am 3.0 1.6 7.1ENE 2.6 6.2 E AVERAGE 4.2
2024-03-02 05:10 am 2.6 1.3 6.7ENE 2.3 3.7 S AVERAGE 4.1
2024-03-02 04:40 am 3.0 1.3 7.7ENE 2.6 6.2 ESE STEEP 4.1
2024-03-02 04:10 am 2.6 1.3 7.1ENE 2.3 6.2 E N/A 4.1
2024-03-02 03:40 am 2.6 1.6 7.1ENE 2.0 5.3 SE N/A 4.2
2024-03-02 03:10 am 2.6 1.6 6.2 E 2.0 4.8 SSE AVERAGE 4.2
2024-03-02 02:40 am 2.6 2.0 5.9 E 1.6 4.2 SSE N/A 4.5
2024-03-02 02:10 am 2.6 2.3 5.9 E 1.6 4.5 SE STEEP 4.5
2024-03-02 01:40 am 2.6 2.0 5.9 E 2.0 5.3 ESE STEEP 4.4
2024-03-02 01:10 am 2.6 1.6 7.1ENE 2.0 5.6 ESE AVERAGE 4.4
2024-03-02 12:40 am 2.6 1.3 7.1ENE 2.3 5.3 SE STEEP 4.5
2024-03-02 12:10 am 2.6 2.0 7.7 NE 2.0 5.9 ESE SWELL 4.7
2024-03-01 11:40 pm 3.0 2.3 7.7 NE 2.0 5.6 E AVERAGE 5.1
2024-03-01 11:10 pm 2.6 2.3 6.7 E 1.3 3.6 SE AVERAGE 5.1
2024-03-01 10:40 pm 2.6 2.6 5.9 E 1.0 3.8 SE STEEP 5.1
2024-03-01 10:10 pm 2.6 2.3 6.7 E 1.3 4.0 SE AVERAGE 4.9
2024-03-01 09:40 pm 2.6 2.3 5.9ENE 1.0 3.8 SE STEEP 4.8
2024-03-01 09:10 pm 2.6 2.6 6.7ENE 1.0 3.3 SE AVERAGE 4.9
2024-03-01 08:40 pm 3.0 2.6 6.7 E 1.3 3.8 SE AVERAGE 4.9
2024-03-01 08:10 pm 3.0 2.6 5.9ENE 1.3 3.6 SE STEEP 4.8
2024-03-01 07:40 pm 3.0 2.6 6.2 E 1.3 3.4 SSE STEEP 4.7
2024-03-01 07:10 pm 3.3 3.0 6.7 E 1.3 3.8 SSE AVERAGE 4.8
2024-03-01 06:40 pm 3.3 2.6 6.2 E 1.6 4.2 SE STEEP 4.8
2024-03-01 06:10 pm 3.3 3.0 7.1 E 1.6 4.0 SE AVERAGE 4.8
2024-03-01 05:40 pm 3.6 3.3 6.7ENE 1.6 3.6 SE STEEP 5.0
2024-03-01 05:10 pm 3.3 2.6 7.1ENE 2.0 4.3 SSE AVERAGE 4.7
2024-03-01 04:40 pm 3.6 3.0 6.7ENE 2.0 3.8 SE STEEP 4.9
2024-03-01 04:10 pm 3.6 3.0 7.7ENE 2.3 4.2 SE AVERAGE 4.8
2024-03-01 03:40 pm 3.6 3.0 7.1 NE 2.0 4.3 ESE AVERAGE 4.7
2024-03-01 02:40 pm 3.6 3.0 7.1 NE 2.3 4.3 SE AVERAGE 4.8
2024-03-01 02:10 pm 3.6 2.6 7.1 NE 2.6 5.3 E AVERAGE 4.7
2024-03-01 01:40 pm 3.6 2.6 7.7 NE 2.6 5.6 ENE AVERAGE 4.8
2024-03-01 01:10 pm 3.6 3.0 7.7 NE 2.3 3.8 SSE AVERAGE 4.8
2024-03-01 12:40 pm 3.9 3.0 7.7 NE 2.6 4.2 ESE AVERAGE 4.8
2024-03-01 12:10 pm 4.3 3.3 7.7 NE 2.6 4.2 SSE AVERAGE 5.1
2024-03-01 11:40 am 3.9 3.0 7.7 NE 2.6 5.3 E AVERAGE 4.9
2024-03-01 11:10 am 4.6 3.6 7.7 NE 3.0 5.6 ENE AVERAGE 5.2

Plot of wave energy versus frequency (and period)